Weather Roundup
Issued by NWS Indianapolis, IN

Home | Current Version | Previous Version | Text Only | Print | Product List | Glossary On
Versions: 1 2 3 4 5 6 7 8 9 10 11 12 13 14 15 16 17 18 19 20 21 22 23 24 25 26 27 28 29 30 31 32 33 34 35 36 37 38 39 40 41 42 43 44 45 46 47 48 49 50
000
NZUS99 KIND 202009
HRRIND

WEATHER ROUNDUP FOR INDIANA AND SURROUNDING STATES
NATIONAL WEATHER SERVICE INDIANAPOLIS IN
300 PM EST THU FEB 20 2020

...INDIANA...

CITY           SKY/WX    TMP DP  RH WIND       PRES   REMARKS
INDIANAPOLIS   PTSUNNY   28  11  48 N5        30.58F WCI  23
EAGLE CREEK    PTSUNNY   27  11  51 NE8G18    30.57F WCI  19
ZIONSVILLE     PTSUNNY   26  13  59 NW9       30.58  WCI  17
GREENWOOD      PTSUNNY   28  15  58 N8        30.57F WCI  19
SHELBYVILLE    CLOUDY    31  14  49 N8G20     30.56F WCI  23
$$

CITY           SKY/WX    TMP DP  RH WIND       PRES   REMARKS
LAFAYETTE      PTSUNNY   27  11  51 N10G18    30.62F WCI  17
KOKOMO         CLOUDY    29  15  56 N15       30.59F WCI  18
FRANKFORT      PTSUNNY   31  14  50 N9G17     30.61S WCI  22
CRAWFORDSVILLE FAIR      27  12  52 N8        30.59F WCI  19
MUNCIE         CLOUDY    27  13  55 N9        30.56F WCI  18
GREENCASTLE    PTSUNNY   28  13  54 N7        30.58F WCI  20
TERRE HAUTE    FAIR      32  15  49 N14       30.60F WCI  22
BLOOMINGTON    FAIR      33  15  47 N15G22    30.55F WCI  23
COLUMBUS       PTSUNNY   28  16  59 N17       30.57F WCI  16
BEDFORD          N/A     36  14  41 N9G17     30.53  WCI  29
SEYMOUR        FAIR      36  19  51 N16       30.55F WCI  26
NORTH VERNON   PTSUNNY   28  18  64 N14       30.54F WCI  17
$$

CITY           SKY/WX    TMP DP  RH WIND       PRES   REMARKS
GARY           MOSUNNY   23   1  39 N14       30.68F WCI  11
VALPARAISO     CLOUDY    22  11  62 N13       30.64S WCI  10
LA PORTE       FAIR      23  11  60 N13G20    30.64S WCI  11
MICHIGAN CITY  CLOUDY    21  18  86 N10G17    30.66S WCI  10
SOUTH BEND     CLOUDY    24   9  52 NW12      30.62S WCI  13
ELKHART        PTSUNNY   25   9  50 NW10      30.61S WCI  15
GOSHEN         PTSUNNY   24  10  55 N9        30.59F WCI  14
ANGOLA         FAIR      23   7  50 N8G16     30.56F WCI  14
KENDALLVILLE   FAIR      25   8  49 N10       30.57S WCI  15
AUBURN         FAIR      28  10  47 NW7       30.57F WCI  21
RENSSELAER     PTSUNNY   27  12  54 N12       30.64S WCI  16
KNOX           PTSUNNY   28  12  50 NW16      30.63S WCI  17
PLYMOUTH       CLOUDY    25  10  54 NW10G24   30.60S WCI  15
ROCHESTER      PTSUNNY   28  10  47 NW8       30.60F WCI  20
WARSAW         PTSUNNY   27  10  50 N10       30.59F WCI  17
FORT WAYNE     PTSUNNY   27  11  51 NW9       30.58F WCI  18
MONTICELLO     PTSUNNY   27  10  49 N8G17     30.61F WCI  19
LOGANSPORT     PTSUNNY   27  14  59 N9        30.61S WCI  17
PERU/GRISSOM   FAIR      28  11  47 N9        30.58S WCI  19
HUNTINGTON       N/A     26  10  50 N10       30.58S WCI  17
MARION         PTSUNNY   26  15  64 N10       30.59S WCI  16
PORTLAND       PTSUNNY   28  10  47 N9        30.56F WCI  20
RICHMOND       PTSUNNY   27  14  59 N9        30.53F WCI  17
BATESVILLE     PTSUNNY   28  14  54 N8G17     30.53F WCI  20
WASHINGTON     FAIR      34  20  55 N13G21    30.56F WCI  25
FRENCH LICK    FAIR      34  18  51 NE12G18   30.51F WCI  25
MADISON        PTSUNNY   34  21  60 NW10G17   30.52F WCI  26
HUNTINGBURG    FAIR      37  21  52 NW16G23   30.52F WCI  28
JEFFERSONVILLE FAIR      38  22  53 N13G21    30.51S WCI  30
EVANSVILLE     FAIR      36  20  52 N14G24    30.55F WCI  27
$$

...ILLINOIS...

CITY           SKY/WX    TMP DP  RH WIND       PRES   REMARKS
CHICAGO        FAIR      24  -4  29 NW9       30.66F WCI  14
MOLINE         FAIR      24   0  35 N9G16     30.73F WCI  14
ROCKFORD       FAIR      17  -1  45 NW12      30.72F WCI   4
KANKAKEE       FAIR      26   3  36 N12       30.67F WCI  15
PEORIA         FAIR      24   4  42 NW12G18   30.71F WCI  13
BLOOMINGTON    FAIR      24   8  50 N15       30.67F WCI  11
CHAMPAIGN      FAIR      27  12  53 N16G23    30.64F WCI  15
RANTOUL        FAIR      26   7  45 N10G23    30.65S WCI  15
DANVILLE       FAIR      28  12  51 N6G18     30.61S WCI  21
QUINCY         SUNNY     26   8  46 N15       30.72S WCI  14
SPRINGFIELD    FAIR      27   9  46 N10G21    30.69F WCI  17
DECATUR        FAIR      27   7  42 N14       30.66F WCI  16
MATTOON        FAIR      28  12  51 N17       30.62F WCI  16
PARIS          FAIR      31  11  42 N12       30.63S WCI  22
EFFINGHAM      FAIR      30 -13  14 NW12      30.65F WCI  20
ROBINSON       FAIR      32  15  50 N10G21    30.62S WCI  23
OLNEY          FAIR      36  22  58 N10G21    30.62F WCI  28
LAWRENCEVILLE  FAIR      35  16  45 N12G24    30.59F WCI  27
MOUNT VERNON   FAIR      33  16  49 N13       30.62F WCI  24
FAIRFIELD      FAIR      32  18  56 N10G18    30.60S WCI  24
MOUNT CARMEL   FAIR      34  15  46 N18G25    30.58F WCI  23
CARMI          FAIR      34  21  60 N16G26    30.57F WCI  23
$$

...KENTUCKY...

CITY           SKY/WX    TMP DP  RH WIND       PRES   REMARKS
LOUISVILLE     PTSUNNY   41  19  41 N15       30.49F
PADUCAH        FAIR      43  22  43 N17G29    30.52F
OWENSBORO      FAIR      40  20  44 N15G23    30.51F WCI  32
FORT KNOX      FAIR      39  21  47 N12G18    30.47F WCI  32
LEXINGTON      FAIR      37  20  50 N13       30.44F WCI  29
BOWLING GREEN  PTSUNNY   42  24  49 N9        30.45F
JACKSON        CLOUDY    41  21  44 VRB3      30.38F
$$

...OHIO...

CITY           SKY/WX    TMP DP  RH WIND       PRES   REMARKS
CINCINNATI     PTSUNNY   33  16  49 N13G24    30.50F WCI  24
DAYTON         PTSUNNY   27  11  51 N10       30.54F WCI  17
TOLEDO         FAIR      27   5  39 NW10      30.57F WCI  17
DEFIANCE       FAIR      28   9  44 NW10      30.57F WCI  19
FINDLAY        FAIR      28   8  43 N12       30.54F WCI  18
LIMA           PTSUNNY   24  11  57 N12G21    30.54F WCI  13
WRIGHT-PAT AFB FAIR      29  10  44 N8        30.53F WCI  21
COLUMBUS       PTSUNNY   30  12  47 N15G22    30.51F WCI  19
CLEVELAND      CLOUDY    23   8  52 N10       30.57F WCI  12
$$

...MICHIGAN...

CITY           SKY/WX    TMP DP  RH WIND       PRES   REMARKS
DETROIT        FAIR      26   3  37 NW12      30.56F WCI  16
GRAND RAPIDS   PTSUNNY   23   6  48 W10       30.59F WCI  12
LANSING        FAIR      21   5  50 NW8       30.59F WCI  11
KALAMAZOO      PTSUNNY   24   8  50 N12G21    30.59F WCI  13
BATTLE CREEK   FAIR      23   8  52 N8        30.58F WCI  14
MARSHALL       FAIR      25   4  41 NW6       30.57S WCI  18
JACKSON        FAIR      23   4  44 W12       30.56F WCI  12
BENTON HARBOR  CLOUDY    24   9  52 NW9       30.64F WCI  14
STURGIS        PTSUNNY   24  11  58 N12       30.57F WCI  13
COLDWATER      FAIR      23   9  54 NW9       30.57S WCI  13
HILLSDALE      FAIR      22   8  53 NW8       30.53F WCI  13
$$

...OTHER LOCATIONS...

CITY           SKY/WX    TMP DP  RH WIND       PRES   REMARKS
SAINT LOUIS MO MOSUNNY   31  12  45 N16G23    30.68S WCI  20
CAPE GIRARDEAU FAIR      40  22  48 N16       30.57S WCI  31
MILWAUKEE WI   FAIR      19  -2  39 NW10      30.66F WCI   7
NASHVILLE TN   CLOUDY    38  32  79 N8        30.43F WCI  32
$$





USA.gov is the U.S. government's official web portal to all federal, state and local government web resources and services.
  • National Weather Service
  • El Paso, TX Weather Forecast Office
  • 7955 Airport Rd
  • Santa Teresa, NM 88008
  • (575) 589-4088
  • Page Author: EPZ Webmaster
  • Web Master's E-mail: sr-epz.webmaster@noaa.gov
  • Page last modified: Feb 14th, 2020 19:38 UTC